| time (UTC) | temp F | wind direction | speed MPH | gust MPH | rain 1hr in | rain 24hr in | rain mn in | humidity % | barometer mb |
| 20260503235104 | 77 | 320 | 1.0 | 12.0 | 0.00 | 0.00 | 0.00 | 25 | 1008.2 |
| 20260503234604 | 77 | 330 | 1.0 | 8.0 | 0.00 | 0.00 | 0.00 | 25 | 1008.0 |
| 20260503234104 | 77 | 327 | 1.0 | 8.0 | 0.00 | 0.00 | 0.00 | 27 | 1008.1 |
| 20260503233604 | 78 | 318 | 3.0 | 9.0 | 0.00 | 0.00 | 0.00 | 26 | 1008.1 |
| 20260503233104 | 78 | 324 | 3.0 | 12.0 | 0.00 | 0.00 | 0.00 | 26 | 1008.1 |
| 20260503232604 | 79 | 346 | 3.0 | 15.0 | 0.00 | 0.00 | 0.00 | 25 | 1008.1 |
| 20260503231604 | 79 | 322 | 2.0 | 12.0 | 0.00 | 0.00 | 0.00 | 24 | 1008.0 |
| 20260503231105 | 79 | 320 | 2.0 | 12.0 | 0.00 | 0.00 | 0.00 | 23 | 1008.1 |
| 20260503230604 | 79 | 58 | 2.0 | 5.0 | 0.00 | 0.00 | 0.00 | 23 | 1008.3 |
| 20260503230104 | 79 | 320 | 0.0 | 2.0 | 0.00 | 0.00 | 0.00 | 22 | 1008.4 |
| 20260503225604 | 78 | 326 | 1.0 | 6.0 | 0.00 | 0.00 | 0.00 | 22 | 1008.4 |
| 20260503225103 | 79 | 324 | 0.0 | 1.0 | 0.00 | 0.00 | 0.00 | 23 | 1008.5 |
| 20260503224104 | 79 | 80 | 1.0 | 3.0 | 0.00 | 0.00 | 0.00 | 23 | 1008.8 |
| 20260503223603 | 79 | 322 | 1.0 | 5.0 | 0.00 | 0.00 | 0.00 | 22 | 1008.9 |
| 20260503223103 | 79 | 308 | 0.0 | 5.0 | 0.00 | 0.00 | 0.00 | 23 | 1008.9 |
| 20260503222104 | 79 | 331 | 2.0 | 10.0 | 0.00 | 0.00 | 0.00 | 24 | 1009.1 |
| 20260503221604 | 79 | 313 | 1.0 | 8.0 | 0.00 | 0.00 | 0.00 | 22 | 1009.2 |
| 20260503221103 | 79 | 337 | 0.0 | 3.0 | 0.00 | 0.00 | 0.00 | 23 | 1009.4 |
| 20260503220603 | 79 | 322 | 1.0 | 3.0 | 0.00 | 0.00 | 0.00 | 22 | 1009.6 |
| 20260503220104 | 79 | 319 | 2.0 | 8.0 | 0.00 | 0.00 | 0.00 | 21 | 1009.6 |
| 20260503215604 | 80 | 324 | 3.0 | 12.0 | 0.00 | 0.00 | 0.00 | 21 | 1009.7 |
| 20260503215104 | 80 | 324 | 0.0 | 5.0 | 0.00 | 0.00 | 0.00 | 21 | 1009.7 |
| 20260503214603 | 80 | 128 | 0.0 | 3.0 | 0.00 | 0.00 | 0.00 | 22 | 1009.7 |
| 20260503214104 | 79 | 325 | 2.0 | 6.0 | 0.00 | 0.00 | 0.00 | 23 | 1009.7 |
| 20260503213603 | 79 | 330 | 0.0 | 3.0 | 0.00 | 0.00 | 0.00 | 22 | 1009.7 |
| 20260503213104 | 79 | 329 | 1.0 | 8.0 | 0.00 | 0.00 | 0.00 | 23 | 1009.8 |
| 20260503212604 | 80 | 329 | 1.0 | 3.0 | 0.00 | 0.00 | 0.00 | 22 | 1009.9 |
| 20260503212103 | 80 | 78 | 0.0 | 3.0 | 0.00 | 0.00 | 0.00 | 22 | 1009.9 |
| 20260503211604 | 80 | 326 | 1.0 | 5.0 | 0.00 | 0.00 | 0.00 | 23 | 1010.0 |
| 20260503210104 | 79 | 97 | 0.0 | 3.0 | 0.00 | 0.00 | 0.00 | 23 | 1010.1 |
| 20260503205604 | 79 | 77 | 2.0 | 7.0 | 0.00 | 0.00 | 0.00 | 23 | 1010.3 |
| 20260503205104 | 79 | 312 | 1.0 | 7.0 | 0.00 | 0.00 | 0.00 | 25 | 1010.3 |
| 20260503204604 | 77 | 82 | 1.0 | 3.0 | 0.00 | 0.00 | 0.00 | 26 | 1010.4 |
| 20260503204104 | 77 | 310 | 1.0 | 9.0 | 0.00 | 0.00 | 0.00 | 28 | 1010.4 |
| 20260503203603 | 76 | 321 | 1.0 | 9.0 | 0.00 | 0.00 | 0.00 | 29 | 1010.5 |
| 20260503203103 | 76 | 313 | 1.0 | 3.0 | 0.00 | 0.00 | 0.00 | 30 | 1010.6 |
| 20260503202604 | 76 | 331 | 3.0 | 7.0 | 0.00 | 0.00 | 0.00 | 28 | 1010.6 |
| 20260503201603 | 76 | 322 | 1.0 | 9.0 | 0.00 | 0.00 | 0.00 | 30 | 1010.8 |
| 20260503201104 | 76 | 329 | 2.0 | 12.0 | 0.00 | 0.00 | 0.00 | 31 | 1011.0 |
| 20260503200104 | 76 | 315 | 2.0 | 7.0 | 0.00 | 0.00 | 0.00 | 30 | 1011.0 |
| 20260503195604 | 76 | 308 | 2.0 | 3.0 | 0.00 | 0.00 | 0.00 | 31 | 1011.0 |
| 20260503195104 | 75 | 319 | 3.0 | 9.0 | 0.00 | 0.00 | 0.00 | 32 | 1011.2 |
| 20260503194104 | 74 | 316 | 1.0 | 3.0 | 0.00 | 0.00 | 0.00 | 31 | 1011.6 |
| 20260503193604 | 74 | 326 | 2.0 | 3.0 | 0.00 | 0.00 | 0.00 | 30 | 1011.7 |
| 20260503193104 | 74 | 330 | 1.0 | 8.0 | 0.00 | 0.00 | 0.00 | 31 | 1011.7 |
| 20260503192604 | 74 | 335 | 1.0 | 5.0 | 0.00 | 0.00 | 0.00 | 32 | 1011.7 |
| 20260503191603 | 73 | 329 | 1.0 | 8.0 | 0.00 | 0.00 | 0.00 | 33 | 1011.9 |
| 20260503191104 | 73 | 325 | 2.0 | 6.0 | 0.00 | 0.00 | 0.00 | 33 | 1012.1 |
| 20260503190604 | 73 | 25 | 2.0 | 8.0 | 0.00 | 0.00 | 0.00 | 34 | 1012.0 |
| 20260503190104 | 73 | 326 | 3.0 | 8.0 | 0.00 | 0.00 | 0.00 | 34 | 1012.1 |
| 20260503185604 | 73 | 317 | 2.0 | 10.0 | 0.00 | 0.00 | 0.00 | 34 | 1012.1 |
| 20260503185103 | 73 | 310 | 1.0 | 3.0 | 0.00 | 0.00 | 0.00 | 36 | 1012.3 |
| 20260503184104 | 72 | 330 | 2.0 | 3.0 | 0.00 | 0.00 | 0.00 | 34 | 1012.3 |
| 20260503183604 | 73 | 314 | 1.0 | 5.0 | 0.00 | 0.00 | 0.00 | 34 | 1012.4 |
| 20260503183104 | 72 | 327 | 1.0 | 6.0 | 0.00 | 0.00 | 0.00 | 36 | 1012.5 |
| 20260503182104 | 72 | 319 | 1.0 | 3.0 | 0.00 | 0.00 | 0.00 | 35 | 1012.5 |
| 20260503180604 | 70 | 320 | 1.0 | 5.0 | 0.00 | 0.00 | 0.00 | 37 | 1012.7 |
| 20260503180104 | 71 | 321 | 2.0 | 10.0 | 0.00 | 0.00 | 0.00 | 37 | 1012.7 |
| 20260503175604 | 71 | 330 | 1.0 | 6.0 | 0.00 | 0.00 | 0.00 | 38 | 1012.6 |
| 20260503174604 | 70 | 310 | 1.0 | 3.0 | 0.00 | 0.00 | 0.00 | 38 | 1012.7 |
| 20260503174104 | 70 | 325 | 3.0 | 6.0 | 0.00 | 0.00 | 0.00 | 37 | 1012.7 |
| 20260503172104 | 68 | 331 | 1.0 | 3.0 | 0.00 | 0.00 | 0.00 | 39 | 1013.0 |
| 20260503171604 | 68 | 327 | 2.0 | 6.0 | 0.00 | 0.00 | 0.00 | 39 | 1013.0 |
| 20260503170604 | 68 | 315 | 1.0 | 3.0 | 0.00 | 0.00 | 0.00 | 39 | 1013.0 |
| 20260503170104 | 68 | 316 | 0.0 | 3.0 | 0.00 | 0.00 | 0.00 | 40 | 1013.0 |
| 20260503160104 | 64 | 342 | 2.0 | 3.0 | 0.00 | 0.00 | 0.00 | 45 | 1013.5 |
| 20260503150604 | 56 | 198 | 0.0 | 0.0 | 0.00 | 0.00 | 0.00 | 66 | 1013.7 |
| 20260503150104 | 55 | 198 | 0.0 | 0.0 | 0.00 | 0.00 | 0.00 | 68 | 1013.8 |
| 20260503140104 | 46 | 223 | 0.0 | 0.0 | 0.00 | 0.00 | 0.00 | 81 | 1013.7 |
| 20260503131103 | 46 | 242 | 0.0 | 0.0 | 0.00 | 0.00 | 0.00 | 82 | 1013.3 |
| 20260503130604 | 46 | 242 | 0.0 | 0.0 | 0.00 | 0.00 | 0.00 | 82 | 1013.3 |
| 20260503130104 | 46 | 242 | 0.0 | 0.0 | 0.00 | 0.00 | 0.00 | 82 | 1013.3 |
| 20260503120104 | 46 | 287 | 0.0 | 0.0 | 0.00 | 0.00 | 0.00 | 80 | 1013.4 |
| 20260503110604 | 47 | 288 | 0.0 | 0.0 | 0.00 | 0.00 | 0.00 | 80 | 1013.4 |
| 20260503110104 | 47 | 288 | 0.0 | 0.0 | 0.00 | 0.00 | 0.00 | 79 | 1013.4 |
| 20260503100104 | 49 | 288 | 0.0 | 0.0 | 0.00 | 0.00 | 0.00 | 76 | 1013.0 |
| 20260503090104 | 51 | 288 | 0.0 | 0.0 | 0.00 | 0.00 | 0.00 | 71 | 1013.1 |
| 20260503081604 | 52 | 288 | 0.0 | 0.0 | 0.00 | 0.00 | 0.00 | 69 | 1013.4 |
| 20260503080604 | 53 | 288 | 0.0 | 0.0 | 0.00 | 0.00 | 0.00 | 68 | 1013.2 |
| 20260503080104 | 53 | 288 | 0.0 | 0.0 | 0.00 | 0.00 | 0.00 | 67 | 1013.1 |
| 20260503072604 | 54 | 288 | 0.0 | 0.0 | 0.00 | 0.00 | 0.00 | 66 | 1012.9 |
| 20260503072104 | 55 | 288 | 0.0 | 0.0 | 0.00 | 0.00 | 0.00 | 65 | 1012.8 |
| 20260503071604 | 55 | 288 | 0.0 | 0.0 | 0.00 | 0.00 | 0.00 | 64 | 1012.7 |
| 20260503071104 | 55 | 288 | 0.0 | 0.0 | 0.00 | 0.00 | 0.00 | 65 | 1012.8 |
| 20260503070604 | 55 | 288 | 0.0 | 0.0 | 0.00 | 0.00 | 0.00 | 64 | 1012.8 |
| 20260503060104 | 57 | 288 | 0.0 | 0.0 | 0.00 | 0.01 | 0.00 | 62 | 1013.6 |
| 20260503054604 | 57 | 305 | 0.0 | 0.0 | 0.00 | 0.01 | 0.00 | 60 | 1013.5 |
| 20260503054104 | 57 | 305 | 0.0 | 0.0 | 0.00 | 0.01 | 0.00 | 59 | 1013.4 |
| 20260503053104 | 58 | 311 | 0.0 | 0.0 | 0.00 | 0.01 | 0.00 | 58 | 1013.5 |
| 20260503052604 | 58 | 329 | 0.0 | 0.0 | 0.00 | 0.01 | 0.00 | 56 | 1013.5 |
| 20260503052105 | 58 | 329 | 0.0 | 0.0 | 0.00 | 0.01 | 0.00 | 57 | 1013.5 |
| 20260503051604 | 58 | 329 | 0.0 | 0.0 | 0.00 | 0.01 | 0.00 | 55 | 1013.5 |
| 20260503050604 | 59 | 330 | 0.0 | 0.0 | 0.00 | 0.01 | 0.00 | 55 | 1013.6 |
| 20260503050105 | 59 | 330 | 0.0 | 0.0 | 0.00 | 0.01 | 0.00 | 55 | 1013.6 |
| 20260503045604 | 59 | 330 | 0.0 | 0.0 | 0.00 | 0.01 | 0.00 | 56 | 1013.5 |
| 20260503045104 | 59 | 330 | 0.0 | 0.0 | 0.00 | 0.01 | 0.00 | 54 | 1013.3 |
| 20260503044604 | 59 | 330 | 0.0 | 0.0 | 0.00 | 0.01 | 0.00 | 54 | 1013.2 |
| 20260503044104 | 59 | 330 | 0.0 | 0.0 | 0.00 | 0.01 | 0.00 | 55 | 1013.2 |
| 20260503043104 | 60 | 330 | 0.0 | 0.0 | 0.00 | 0.01 | 0.00 | 53 | 1013.1 |
| 20260503042604 | 60 | 330 | 0.0 | 0.0 | 0.00 | 0.01 | 0.00 | 52 | 1013.1 |
| 20260503041104 | 60 | 330 | 0.0 | 0.0 | 0.00 | 0.01 | 0.00 | 52 | 1012.7 |
| 20260503040604 | 60 | 330 | 0.0 | 0.0 | 0.00 | 0.01 | 0.00 | 51 | 1012.6 |
| 20260503040104 | 61 | 330 | 0.0 | 0.0 | 0.00 | 0.01 | 0.00 | 51 | 1012.5 |
| 20260503035604 | 61 | 330 | 0.0 | 0.0 | 0.00 | 0.01 | 0.00 | 51 | 1012.4 |
| 20260503035104 | 61 | 330 | 0.0 | 0.0 | 0.00 | 0.01 | 0.00 | 51 | 1012.3 |
| 20260503034604 | 61 | 330 | 0.0 | 0.0 | 0.00 | 0.01 | 0.00 | 50 | 1012.2 |
| 20260503033604 | 61 | 330 | 0.0 | 0.0 | 0.00 | 0.01 | 0.00 | 50 | 1012.3 |
| 20260503033104 | 61 | 330 | 0.0 | 0.0 | 0.00 | 0.01 | 0.00 | 50 | 1012.1 |
| 20260503032604 | 61 | 330 | 0.0 | 0.0 | 0.00 | 0.01 | 0.00 | 50 | 1012.1 |
| 20260503032105 | 62 | 330 | 0.0 | 0.0 | 0.00 | 0.01 | 0.00 | 50 | 1012.1 |
| 20260503031605 | 62 | 330 | 0.0 | 0.0 | 0.00 | 0.01 | 0.00 | 50 | 1011.9 |
| 20260503031103 | 62 | 330 | 0.0 | 1.0 | 0.00 | 0.01 | 0.00 | 50 | 1011.9 |
| 20260503030604 | 62 | 331 | 0.0 | 1.0 | 0.00 | 0.01 | 0.00 | 50 | 1011.8 |
| 20260503030105 | 62 | 331 | 0.0 | 2.0 | 0.00 | 0.01 | 0.00 | 49 | 1011.8 |
| 20260503025604 | 62 | 333 | 0.0 | 1.0 | 0.00 | 0.01 | 0.00 | 49 | 1011.8 |
| 20260503025104 | 62 | 336 | 0.0 | 2.0 | 0.00 | 0.01 | 0.00 | 49 | 1011.7 |
| 20260503024604 | 63 | 321 | 0.0 | 1.0 | 0.00 | 0.01 | 0.00 | 49 | 1011.7 |
| 20260503024104 | 63 | 321 | 1.0 | 3.0 | 0.00 | 0.01 | 0.00 | 48 | 1011.7 |
| 20260503023604 | 63 | 329 | 1.0 | 6.0 | 0.00 | 0.01 | 0.00 | 48 | 1011.6 |
| 20260503023104 | 63 | 319 | 2.0 | 10.0 | 0.00 | 0.01 | 0.00 | 47 | 1011.5 |
| 20260503022604 | 63 | 319 | 1.0 | 5.0 | 0.00 | 0.01 | 0.00 | 46 | 1011.5 |
| 20260503021604 | 64 | 326 | 4.0 | 14.0 | 0.00 | 0.01 | 0.00 | 45 | 1011.3 |
| 20260503021104 | 65 | 338 | 2.0 | 13.0 | 0.00 | 0.01 | 0.00 | 44 | 1011.2 |
| 20260503020605 | 65 | 325 | 1.0 | 5.0 | 0.00 | 0.01 | 0.00 | 43 | 1011.1 |
| 20260503020104 | 65 | 309 | 1.0 | 9.0 | 0.00 | 0.01 | 0.00 | 42 | 1010.9 |
| 20260503015605 | 66 | 327 | 2.0 | 10.0 | 0.00 | 0.01 | 0.00 | 42 | 1010.8 |
| 20260503015104 | 66 | 323 | 2.0 | 6.0 | 0.00 | 0.01 | 0.00 | 42 | 1010.7 |
| 20260503014604 | 66 | 327 | 3.0 | 8.0 | 0.00 | 0.01 | 0.00 | 42 | 1010.7 |
| 20260503014104 | 66 | 329 | 2.0 | 3.0 | 0.00 | 0.01 | 0.00 | 42 | 1010.6 |
| 20260503013604 | 66 | 331 | 2.0 | 5.0 | 0.00 | 0.01 | 0.00 | 42 | 1010.7 |
| 20260503013104 | 66 | 299 | 1.0 | 3.0 | 0.00 | 0.01 | 0.00 | 43 | 1010.6 |
| 20260503012604 | 66 | 321 | 1.0 | 3.0 | 0.00 | 0.01 | 0.00 | 43 | 1010.5 |
| 20260503012104 | 66 | 314 | 1.0 | 3.0 | 0.00 | 0.01 | 0.00 | 42 | 1010.5 |
| 20260503011604 | 66 | 296 | 0.0 | 3.0 | 0.00 | 0.01 | 0.00 | 42 | 1010.5 |
| 20260503010104 | 67 | 289 | 1.0 | 5.0 | 0.00 | 0.01 | 0.00 | 42 | 1010.4 |
| 20260503005604 | 67 | 321 | 2.0 | 5.0 | 0.00 | 0.01 | 0.00 | 42 | 1010.5 |
| 20260503004104 | 65 | 315 | 1.0 | 6.0 | 0.00 | 0.01 | 0.00 | 44 | 1010.5 |
| 20260503003604 | 65 | 324 | 2.0 | 10.0 | 0.00 | 0.01 | 0.00 | 44 | 1010.3 |
| 20260503003104 | 64 | 323 | 2.0 | 6.0 | 0.00 | 0.01 | 0.00 | 44 | 1010.4 |
| 20260503002604 | 64 | 327 | 2.0 | 5.0 | 0.00 | 0.01 | 0.00 | 45 | 1010.7 |
| 20260503002105 | 64 | 271 | 0.0 | 3.0 | 0.00 | 0.01 | 0.00 | 47 | 1010.5 |
| 20260503001104 | 64 | 347 | 1.0 | 3.0 | 0.00 | 0.01 | 0.00 | 47 | 1010.4 |
| 20260503000604 | 64 | 252 | 0.0 | 0.0 | 0.00 | 0.01 | 0.00 | 47 | 1010.4 |
| 20260503000105 | 64 | 253 | 0.0 | 2.0 | 0.00 | 0.01 | 0.00 | 46 | 1010.4 |
| 20260502235604 | 64 | 299 | 0.0 | 1.0 | 0.00 | 0.01 | 0.00 | 46 | 1010.4 |